Zurück zum Katalog

STARLINK-4730

AktivKommunikationVLEO
NORAD 53794·PAYLOAD·🇺🇸 United States

Gestartet Sep 11, 2022 von Cape Canaveral Space Force Station

Loading…

Nächste Überflüge (nächste 24 Stunden)

TLE

AktuellSource: CelesTrak SupGP

Epoche: Sep 15, 2026, 01:48 UTC

1 53794C 22111X   26258.07548611  .00050488  00000+0  16236-2 0  2582
2 53794  53.1582 131.3289 0001401  79.5899  72.6369 15.31674866    15

Verfolge STARLINK-4730 in Echtzeit mit AllMySat

Download on the App Store